Regional Weather Roundup
Issued by NWS

Home | Current Version | Previous Version | Graphics & Text | Print | Product List | Glossary On
Versions: 1 2 3 4 5 6 7 8 9 10 11 12 13 14 15 16 17 18 19 20 21 22 23 24 25 26 27 28 29 30 31 32 33 34 35 36 37 38 39 40 41 42 43 44 45 46 47 48 49 50
708
ASUS43 KMKX 230611
RWRWI

WISCONSIN REGIONAL WEATHER ROUNDUP
NATIONAL WEATHER SERVICE MILWAUKEE/SULLIVAN WI
100 AM CDT FRI JUN 23 2017

NOTE: "FAIR" INDICATES FEW OR NO CLOUDS BELOW 12,000 FEET WITH NO
SIGNIFICANT WEATHER AND/OR OBSTRUCTIONS TO VISIBILITY.

WIZ001-002-006>008-014>016-023>028-230700-
NORTHWEST WISCONSIN

CITY           SKY/WX    TMP DP  RH WIND       PRES   REMARKS
SUPERIOR ARPT  NOT AVBL
ASHLAND        CLEAR     55  51  86 S5        29.68F
6HR MIN TEMP:  53; 6HR MAX TEMP:  73;

HAYWARD        PTCLDY    53  51  93 CALM      29.71F
6HR MIN TEMP:  52; 6HR MAX TEMP:  71;

SIREN          CLEAR     57  51  78 CALM      29.72S
6HR MIN TEMP:  57; 6HR MAX TEMP:  72;

CUMBERLAND     PTCLDY    59  54  82 W5        29.72F
RICE LAKE      PTCLDY    62  59  90 SW3       29.74S
6HR MIN TEMP:  62; 6HR MAX TEMP:  69;

CHETEK         PTCLDY    60  60  99 W5        29.72F
6HR MIN TEMP:  60; 6HR MAX TEMP:  68;

LADYSMITH      CLOUDY    60  59  97 CALM      29.73F
6HR MIN TEMP:  59; 6HR MAX TEMP:  69;

EAU CLAIRE     CLOUDY    63  62  97 SW3       29.71F
6HR MIN TEMP:  62; 6HR MAX TEMP:  68; 6HR PCP:  0.08;

MENOMONIE      PTCLDY    63  62  96 W3        29.73S
6HR MIN TEMP:  63; 6HR MAX TEMP:  67; 6HR PCP:  0.01;

NEW RICHMOND   CLEAR     60  58  95 SW3       29.74F
6HR MIN TEMP:  59; 6HR MAX TEMP:  70;

OSCEOLA        PTCLDY    58  58 100 CALM      29.76S
6HR MIN TEMP:  58; 6HR MAX TEMP:  71;

$$

WIZ003>005-009-010-017-018-230700-
NORTH CENTRAL WISCONSIN

CITY           SKY/WX    TMP DP  RH WIND       PRES   REMARKS
MANITOWISH WTR PTCLDY    55  55 100 NW5       29.71R
6HR MIN TEMP:  53; 6HR MAX TEMP:  67;

ARBOR VITAE    CLEAR     58  57  96 CALM      29.69F
6HR MIN TEMP:  57; 6HR MAX TEMP:  66;

WOODRUFF       CLEAR     58  57  96 CALM      29.69F
6HR MIN TEMP:  57; 6HR MAX TEMP:  66;

RHINELANDER    CLOUDY    59  59 100 W5        29.71F
6HR MIN TEMP:  56; 6HR MAX TEMP:  64; 6HR PCP: TRACE;

EAGLE RIVER    FOG       53  53 100 CALM      29.70F VSB 1/4
6HR MIN TEMP:  53; 6HR MAX TEMP:  65;

LAND O LAKES   CLEAR     57  56  99 W3        29.72S
6HR MIN TEMP:  53; 6HR MAX TEMP:  68;

PHILLIPS       CLEAR     58  58 100 W3        29.71S
6HR MIN TEMP:  56; 6HR MAX TEMP:  66;

TOMAHAWK       NOT AVBL
MEDFORD        CLOUDY    60  59  97 W5        29.72S
6HR MIN TEMP:  60; 6HR MAX TEMP:  65; 6HR PCP:  0.06;

MERRILL        CLOUDY    61  61 100 CALM      29.72R
6HR MIN TEMP:  60; 6HR MAX TEMP:  67; 6HR PCP:  0.06;

$$

WIZ029-030-035-036-043>047-230700-
CENTRAL WISCONSIN

CITY           SKY/WX    TMP DP  RH WIND       PRES   REMARKS
WAUSAU         CLOUDY    63  62  97 NW6       29.70R
6HR MIN TEMP:  63; 6HR MAX TEMP:  66; 6HR PCP: TRACE;

MOSINEE        CLOUDY    63  63 100 NW8       29.72R
MARSHFIELD     CLOUDY    63  61  93 NW6       29.72R
6HR MIN TEMP:  63; 6HR MAX TEMP:  67; 6HR PCP: TRACE;

STEVENS POINT  CLOUDY    63  63 100 SW5       29.72R
6HR MIN TEMP:  62; 6HR MAX TEMP:  65; 6HR PCP:  0.03;

WAUPACA        CLOUDY    67  67  99 S3        29.69F FOG
6HR MIN TEMP:  67; 6HR MAX TEMP:  69; 6HR PCP:  0.01;

WAUTOMA        RAIN      65  65 100 SW3       29.72R FOG
6HR MIN TEMP:  65; 6HR MAX TEMP:  68; 6HR PCP:  1.27;

WISC RAPIDS    CLOUDY    66  66 100 W3        29.72R FOG
6HR MIN TEMP:  66; 6HR MAX TEMP:  68; 6HR PCP:  0.01;

CAMP DOUGLAS   LGT RAIN  66  66 100 CALM      29.72R
6HR MIN TEMP:  65; 6HR MAX TEMP:  66; 6HR PCP:  0.32;

$$

WIZ011>013-019>022-031-037>040-048>050-230700-
NORTHEAST WISCONSIN

CITY           SKY/WX    TMP DP  RH WIND       PRES   REMARKS
ANTIGO         CLOUDY    61  61 100 NW6       29.71S
6HR MIN TEMP:  61; 6HR MAX TEMP:  65; 6HR PCP:  0.01;

SHAWANO        CLOUDY    66  65  95 SW3       29.68R
6HR MIN TEMP:  66; 6HR MAX TEMP:  69; 6HR PCP:  0.03;

OCONTO         CLOUDY    65  65  98 SW3       29.66F
6HR MIN TEMP:  65; 6HR MAX TEMP:  68; 6HR PCP:  0.03;

STURGEON BAY     N/A     66  65  96 SW5         N/A  FOG
6HR MIN TEMP:  66; 6HR MAX TEMP:  70;

GREEN BAY      LGT RAIN  66  66 100 SW6       29.69S
6HR MIN TEMP:  66; 6HR MAX TEMP:  70; 6HR PCP:  0.04;

MANITOWOC      RAIN      67  65  93 W6        29.67F
6HR MIN TEMP:  64; 6HR MAX TEMP:  70; 6HR PCP:  1.09;

APPLETON       RAIN      64  64 100 SW7       29.69S
CLINTONVILLE   CLOUDY    64  64 100 SW3       29.70R
OSHKOSH        LGT RAIN  66  65  96 W8        29.69R
6HR MIN TEMP:  66; 6HR MAX TEMP:  69; 6HR PCP:  0.95;

$$

WIZ032>034-041-042-053>061-230700-
SOUTHWEST WISCONSIN

CITY           SKY/WX    TMP DP  RH WIND       PRES   REMARKS
LA CROSSE      CLOUDY    69  69 100 CALM      29.71S
6HR MIN TEMP:  69; 6HR MAX TEMP:  70; 6HR PCP:  0.22;

SPARTA         CLOUDY    64  64 100 CALM      29.73S FOG
6HR MIN TEMP:  64; 6HR MAX TEMP:  65; 6HR PCP:  0.22;

VIROQUA        CLOUDY    65  65 100 E5        29.73F
6HR MIN TEMP:  65; 6HR MAX TEMP:  68; 6HR PCP:  0.92;

BOSCOBEL       CLOUDY    66  64  93 NE5       29.69S
6HR MIN TEMP:  66; 6HR MAX TEMP:  73; 6HR PCP:  0.99;

PRAIRIE DU CHI LGT RAIN  67  64  88 NW5       29.70R
6HR MIN TEMP:  67; 6HR MAX TEMP:  76; 6HR PCP:  0.13;

PLATTEVILLE    CLOUDY    72  72  99 N10       29.68R
6HR MIN TEMP:  72; 6HR MAX TEMP:  81;

$$

WIZ056-057-062-063-064-067-068-230700-
SOUTH CENTRAL WISCONSIN

CITY           SKY/WX    TMP DP  RH WIND       PRES   REMARKS
REEDSBURG      RAIN      64  64 100 NW3       29.71R
6HR MIN TEMP:  64; 6HR MAX TEMP:  68; 6HR PCP:  1.07;

BARABOO/DELLS  RAIN      64  63  95 N6        29.70F
6HR MIN TEMP:  64; 6HR MAX TEMP:  70; 6HR PCP:  0.74;

LONE ROCK      TSTM      65  64  97 E14       29.64F VSB 1
6HR MIN TEMP:  65; 6HR MAX TEMP:  73; 6HR PCP:  1.05;

MINERAL POINT  HVY RAIN  70  70 100 NW22G28   29.70R
MADISON        TSTM      66  65  96 N7        29.67F
6HR MIN TEMP:  66; 6HR MAX TEMP:  74; 6HR PCP:  0.65;

MIDDLETON      CLOUDY    67  67 100 N6        29.68F
6HR MIN TEMP:  67; 6HR MAX TEMP:  74; 6HR PCP:  0.18;

WATERTOWN      RAIN      66  66 100 NE10      29.67F
6HR MIN TEMP:  66; 6HR MAX TEMP:  74;

MONROE         MOCLDY    72  70  94 S6        29.66R
JANESVILLE     MOCLDY    75  72  88 SW7       29.65S
$$

WIZ051-052-058>065-066-070>072-230700-
SOUTHEAST WISCONSIN

CITY           SKY/WX    TMP DP  RH WIND       PRES   REMARKS
MILWAUKEE      CLOUDY    67  65  93 NE12      29.66F
6HR MIN TEMP:  67; 6HR MAX TEMP:  74; 6HR PCP:  0.05;

WAUKESHA       CLOUDY    64  64 100 NE8       29.67F
MILWAUKEE/TIMM CLOUDY    64  63  94 NE5       29.67F
RACINE         CLOUDY    67  65  93 N3        29.68R
6HR MIN TEMP:  67; 6HR MAX TEMP:  75; 6HR PCP: TRACE;

KENOSHA        CLOUDY    75  71  87 SW9G20    29.66F
6HR MIN TEMP:  75; 6HR MAX TEMP:  84;

FOND DU LAC    RAIN      67  64  90 CALM      29.69F
6HR MIN TEMP:  67; 6HR MAX TEMP:  73; 6HR PCP:  0.55;

SHEBOYGAN      LGT RAIN  67  67 100 N5        29.67F
6HR MIN TEMP:  65; 6HR MAX TEMP:  73; 6HR PCP:  0.16;

WEST BEND      HVY RAIN  64  64 100 N12G21    29.69R
JUNEAU         TSTM      64  63  96 CALM      29.73R
6HR MIN TEMP:  64; 6HR MAX TEMP:  72; 6HR PCP:  0.28;

$$

LSZ147-162-230700-
LAKE SUPERIOR

STATION/POSITION TIME  TEMP    WIND        PRES    WAVE
                       AIR SEA DIR/SP/G            HT/PER
                 (UTC) (F)     (DEG/KT/KT) (MB)    (FT/S)
W MID LAKE BUOY  0550   48 39  240/  8/  8 1003.5F   1/ 3
DEVILS ISLAND    0600   59     220/ 10/ 11 1004.0F
PORT WING        0400   62     300/ 13     1005.4
SAXON HARBOR     0530   61     160/  5/  6 1005.1F
$$

LMZ867-665-643>646-230700-
LAKE MICHIGAN

STATION/POSITION TIME  TEMP    WIND        PRES    WAVE
                       AIR SEA DIR/SP/G            HT/PER
                 (UTC) (F)     (DEG/KT/KT) (MB)    (FT/S)
CHAMBERS ISLAND  0540   65      CALM  /  4 1003.7F
N MID LAKE BUOY  0550   57 54  180/  8/ 10 1004.5F   2/ 5
NORTHPORT PIER   0



USA.gov is the U.S. government's official web portal to all federal, state and local government web resources and services.